DW7102 Weather Reports


time (UTC)temp
C
wind
direction
speed
KPH
gust
KPH
rain 1hr
cm
rain 24hr
cm
rain mn
cm
humidity
%
barometer
mb
20260505213711 11 184 8.0 11.3 0.00 0.86 0.86 91 998.2
20260505213203 11 210 3.2 14.5 0.00 0.86 0.86 91 998.4
20260505210202 11 176 6.4 9.7 0.13 0.86 0.86 92 997.4
20260505200704 10 305 3.2 14.5 0.56 0.79 0.79 91 997.6
20260505200203 10 281 6.4 20.9 0.53 0.74 0.74 90 997.7
20260505193704 11 300 9.7 20.9 0.23 0.43 0.43 89 996.6
20260505183704 15 20 4.8 4.8 0.00 0.20 0.20 77 993.2
20260505183203 15 60 3.2 8.0 0.00 0.20 0.20 77 993.4
20260505173704 14 97 4.8 11.3 0.05 0.20 0.20 80 994.5
20260505170704 15 98 0.0 1.6 0.00 0.15 0.15 68 994.9
20260505170203 15 71 1.6 12.9 0.00 0.15 0.15 67 994.8
20260505163203 13 58 4.8 14.5 0.00 0.15 0.15 70 994.9
20260505153204 13 53 1.6 4.8 0.00 0.15 0.15 73 995.4
20260505150204 12 333 0.0 12.9 0.00 0.15 0.15 72 996.1
20260505123159 11 80 1.6 11.3 0.00 0.15 0.15 69 996.8
20260505120200 11 97 6.4 14.5 0.00 0.15 0.15 70 997.3
20260505110200 10 102 11.3 22.5 0.00 0.15 0.15 71 997.8
20260505093702 7 86 1.6 4.8 0.00 0.15 0.15 78 998.2
20260505093201 8 120 1.6 16.1 0.00 0.15 0.15 76 998.1
20260505090700 7 67 8.0 14.5 0.03 0.15 0.15 80 998.4
20260505090200 7 75 0.0 11.3 0.03 0.15 0.15 80 998.7
20260505083700 6 79 3.2 4.8 0.03 0.15 0.15 88 999.0
20260505083200 6 349 1.6 9.7 0.03 0.15 0.15 87 999.2
20260505080201 6 20 1.6 11.3 0.00 0.13 0.13 85 999.6
20260505073201 5 123 1.6 4.8 0.00 0.13 0.13 88 999.7
20260505070700 5 73 1.6 4.8 0.00 0.13 0.13 89 999.9
20260505070200 5 54 0.0 4.8 0.00 0.13 0.13 88 1000.0
20260505063700 5 46 3.2 4.8 0.13 0.13 0.13 84 1000.2
20260505053701 6 96 1.6 4.8 0.00 0.00 0.00 78 1001.1
20260505053201 6 83 1.6 11.3 0.00 0.00 0.00 78 1000.9
20260505050701 6 69 3.2 8.0 0.00 0.00 0.00 78 1001.4
20260505033201 8 72 3.2 11.3 0.00 0.00 0.00 70 1002.4
20260505030201 9 105 0.0 4.8 0.00 0.00 0.00 68 1002.4
20260505023701 8 64 3.2 4.8 0.00 0.00 0.00 68 1002.4
20260505020202 10 306 0.0 3.2 0.00 0.00 0.00 65 1002.6
20260505013702 11 269 1.6 4.8 0.00 0.00 0.00 62 1002.5
20260505010701 11 245 3.2 8.0 0.00 0.00 0.00 60 1002.4
20260505010202 11 265 4.8 11.3 0.00 0.00 0.00 60 1002.4
20260504233203 12 255 3.2 12.9 0.00 0.00 0.00 51 1001.2
20260504230702 14 265 3.2 12.9 0.00 0.00 0.00 46 1000.9
20260504230202 15 265 3.2 19.3 0.00 0.00 0.00 45 1000.8